Regional Weather Roundup
Issued by NWS

Home | Current Version | Previous Version | Graphics & Text | Print | Product List | Glossary On
Versions: 1 2 3 4 5 6 7 8 9 10 11 12 13 14 15 16 17 18 19 20 21 22 23 24 25 26 27 28 29 30 31 32 33 34 35 36 37 38 39 40 41 42 43 44 45 46 47 48 49 50
608
ASUS43 KDTX 271810
RWRMI
MICHIGAN HOURLY REGIONAL WEATHER ROUNDUP
NATIONAL WEATHER SERVICE DETROIT/PONTIAC MI
ISSUED BY NATIONAL WEATHER SERVICE GRAND RAPIDS MI
100 PM EST MON FEB 27 2017

NOTE: "FAIR" INDICATES FEW OR NO CLOUDS BELOW 12,000 FEET WITH NO
SIGNIFICANT WEATHER AND/OR OBSTRUCTION TO VISIBILITY.

MIZ047>049-052>055-059>063-066>070-074>076-081>083-271900-
SOUTHEAST LOWER MICHIGAN

CITY           SKY/WX    TMP DP  RH WIND       PRES   REMARKS
ADRIAN         MOSUNNY   47  32  56 SW12      30.21F
6HR MIN TEMP:  28; 6HR MAX TEMP:  47;

ALMA           SUNNY     44  18  35 S5        30.19F
ANN ARBOR      SUNNY     47  29  49 S7        30.20F
BAD AXE        SUNNY     42  22  46 SW6       30.21F
6HR MIN TEMP:  30; 6HR MAX TEMP:  42;

DETROIT CITY   SUNNY     49  27  42 SW9       30.21F
6HR MIN TEMP:  34; 6HR MAX TEMP:  49;

DETROIT        MOSUNNY   50  27  40 S10G16    30.22F
6HR MIN TEMP:  30; 6HR MAX TEMP:  50;

FLINT          SUNNY     45  26  47 SW7       30.21F
6HR MIN TEMP:  32; 6HR MAX TEMP:  45;

GROSSE ILE     SUNNY     45  30  55 S8        30.22F
6HR MIN TEMP:  32; 6HR MAX TEMP:  45;

HILLSDALE      SUNNY     45  30  57 SW6       30.18F
HOWELL         MOSUNNY   47  28  49 SW6       30.19F
6HR MIN TEMP:  32; 6HR MAX TEMP:  47;


CITY           SKY/WX    TMP DP  RH WIND       PRES   REMARKS
JACKSON        SUNNY     49  26  41 SW6       30.18F
6HR MIN TEMP:  34; 6HR MAX TEMP:  49;

LANSING        SUNNY     47  27  45 MISG      30.19F
6HR MIN TEMP:  28; 6HR MAX TEMP:  47;

MASON          SUNNY     46  32  56 S3        30.18F
MONROE         SUNNY     49  31  50 SW7       30.21F
6HR MIN TEMP:  30; 6HR MAX TEMP:  50;

MT. CLEMENS    MOSUNNY   48  30  49 CALM      30.20F
6HR MIN TEMP:  32; 6HR MAX TEMP:  50;

PONTIAC        MOSUNNY   46  28  49 S6        30.18F
6HR MIN TEMP:  31; 6HR MAX TEMP:  48;

PORT HOPE        N/A     35  28  75 E12       30.21F WCI  27
6HR MIN TEMP:  32; 6HR MAX TEMP:  35;

PORT HURON     SUNNY     46  28  49 CALM      30.21F
TRI CITIES     SUNNY     43  24  47 S8        30.21F
6HR MIN TEMP:  27; 6HR MAX TEMP:  43;

YPSILANTI      SUNNY     49  30  48 W6        30.22F
6HR MIN TEMP:  30; 6HR MAX TEMP:  49;

$$
MIZ043>046-050>051-056>058-064>065-071>073-077>080-271900-
SOUTHWEST LOWER MICHIGAN

CITY           SKY/WX    TMP DP  RH WIND       PRES   REMARKS
BATTLE CREEK   SUNNY     48  28  46 SW10      30.18F
6HR MIN TEMP:  29; 6HR MAX TEMP:  48;

BENTON HARBOR  SUNNY     49  30  48 S13       30.17F
6HR MIN TEMP:  29; 6HR MAX TEMP:  49;

BIG RAPIDS     MOSUNNY   42  22  44 S9        30.15F
6HR MIN TEMP:  24; 6HR MAX TEMP:  42;

COLDWATER      SUNNY     48  28  45 SW10G16   30.17F
6HR MIN TEMP:  31; 6HR MAX TEMP:  49;

HOLLAND        SUNNY     47  32  56 S8        30.17F
6HR MIN TEMP:  28; 6HR MAX TEMP:  47;

GRAND RAPIDS   MOSUNNY   45  28  51 S6        30.17F
6HR MIN TEMP:  26; 6HR MAX TEMP:  46;

KALAMAZOO      SUNNY     48  27  44 S10       30.18F
6HR MIN TEMP:  31; 6HR MAX TEMP:  48;

MARSHALL       SUNNY     48  28  46 S8        30.17F
6HR MIN TEMP:  31; 6HR MAX TEMP:  48;

MOUNT PLEASANT SUNNY     42  24  47 SE10      30.18F
6HR MIN TEMP:  26; 6HR MAX TEMP:  43;

MUSKEGON       MOSUNNY   47  24  40 SW7       30.17F
6HR MIN TEMP:  25; 6HR MAX TEMP:  47;

STURGIS        SUNNY     46  32  56 SW6       30.17F
6HR MIN TEMP:  29; 6HR MAX TEMP:  47;

$$
MIZ016>042-271900-
NORTHERN LOWER MICHIGAN

CITY           SKY/WX    TMP DP  RH WIND       PRES   REMARKS
ALPENA         SUNNY     37  20  50 S9        30.19F WCI  30
6HR MIN TEMP:  18; 6HR MAX TEMP:  38;

BEAVER ISLAND  CLOUDY    32  21  63 SW6       30.16F WCI  26
6HR MIN TEMP:  12; 6HR MAX TEMP:  32;

BELLAIRE       SUNNY     38  20  49 SW3       30.17S
6HR MIN TEMP:  19; 6HR MAX TEMP:  38;

CADILLAC       SUNNY     38  22  52 S5        30.13S WCI  34
CHARLEVOIX     SUNNY     35  20  53 S5        30.19S WCI  31
GAYLORD        SUNNY     35  19  52 S9        30.13F WCI  28
6HR MIN TEMP:  17; 6HR MAX TEMP:  35;

HOUGHTON LAKE  SUNNY     40  20  44 SW7       30.16F
6HR MIN TEMP:  20; 6HR MAX TEMP:  40;

MANISTEE       SUNNY     42  23  46 S6        30.14F
OSCODA         SUNNY     40  24  51 S9        30.20S WCI  34
6HR MIN TEMP:  22; 6HR MAX TEMP:  40;

PELLSTON       PTSUNNY   33  15  47 SE5       30.17F WCI  29
6HR MIN TEMP:   7; 6HR MAX TEMP:  34;

TRAVERSE CITY  MOSUNNY   41  20  43 VRB5      30.14F
6HR MIN TEMP:  22; 6HR MAX TEMP:  41;

LUDINGTON      SUNNY     42  29  61 W6        30.15F
6HR MIN TEMP:  22; 6HR MAX TEMP:  42;

$$
MIZ007>008-015-271900-
EASTERN UPPER MICHIGAN

CITY           SKY/WX    TMP DP  RH WIND       PRES   REMARKS
MACKINAC ISLAN MOSUNNY   30  15  53 CALM      30.17F
6HR MIN TEMP:  17; 6HR MAX TEMP:  30;

NEWBERRY       CLOUDY    27  17  64 S14       30.14F WCI  16
6HR MIN TEMP:   3; 6HR MAX TEMP:  28;

S. S. MARIE    CLOUDY    29  12  49 SE6       30.17S WCI  23
6HR MIN TEMP:  14; 6HR MAX TEMP:  29;

$$
MIZ004>006-011>014-085-271900-
CENTRAL UPPER MICHIGAN

CITY           SKY/WX    TMP DP  RH WIND       PRES   REMARKS
MANISTIQUE     PTSUNNY   29  20  68 S10       30.14F WCI  20
6HR MIN TEMP:   5; 6HR MAX TEMP:  29;

ESCANABA       CLOUDY    34  23  64 S10       30.12F WCI  26
6HR MIN TEMP:   4; 6HR MAX TEMP:  35;

MENOMINEE      SUNNY     36  22  56 SW10      30.12F WCI  28
6HR MIN TEMP:  17; 6HR MAX TEMP:  36; 6HR PCP: TRACE;

SAWYER-GWINN   MOSUNNY   27  16  63 S17       30.06S WCI  14
$$
MIZ001>003-009>011-084-271900-
WESTERN UPPER MICHIGAN

CITY           SKY/WX    TMP DP  RH WIND       PRES   REMARKS
IRON MOUNTAIN  CLOUDY    30  16  56 SE7       30.04F WCI  23
6HR MIN TEMP:   4; 6HR MAX TEMP:  30;

HOUGHTON       LGT SNOW  23  19  85 S7        29.99F FOG     WCI  15
6HR MIN TEMP:   7; 6HR MAX TEMP:  23; 6HR PCP:  0.01;

COPPER HARBOR    N/A     28  14  55 SW8       30.03F WCI  20
6HR MIN TEMP:   5; 6HR MAX TEMP:  28;

$$

ABBREVIATIONS USED IN REMARKS
   TC - TEMPERATURE IN CELSIUS
  WCI - WIND CHILL INDEX
   HX - HEAT INDEX
  VSB - VISIBILITY





USA.gov is the U.S. government's official web portal to all federal, state and local government web resources and services.